Terug naar catalogus

STARLINK-34575

ActiefCommunicatieSSO
NORAD 64859·PAYLOAD·🇺🇸 United States

Gelanceerd Jul 19, 2025 vanaf Vandenberg Space Force Base

Loading…

Volgende Passages (komende 24 uur)

TLE

VersSource: CelesTrak SupGP

Epoch: Sep 14, 2026, 21:12 UTC

1 64859C 25152T   26257.88381944  .00039434  00000+0  12247-2 0  2571
2 64859  97.2844 108.4719 0001898  91.5369 128.0847 15.33402729    14

Volg STARLINK-34575 in realtime met AllMySat

Download on the App Store